Weather History for KBFF - January, 2006

Change the Weather History Date:

Sunday, January 1, 2006

  Actual Average Record
Temperature  
Mean Temperature 41 °F 26 °F  
Max Temperature 47 °F 40 °F 64 °F (1998)
Min Temperature 35 °F 13 °F -31 °F (1924)
Degree Days  
Heating Degree Days 24 39  
Month to date heating degree days 24 39  
Since 1 July heating degree days 2548 2811  
Cooling Degree Days 0 0  
Month to date cooling degree days 0 0  
Year to date cooling degree days 0 0  
Moisture  
Dew Point 34 °F    
Average Humidity 71    
Maximum Humidity 89    
Minimum Humidity 52    
Precipitation  
Precipitation 0.01 in 0.01 in 0.47 in (1976)
Month to date precipitation 0.01 0.01  
Year to date precipitation 0.01 0.01  
Snow  
Snow 0.00 in 0.20 in 4.70 in (1976)
Month to date snowfall 0.0 0.2  
Since 1 July snowfall 4.1 16.2  
Snow Depth 0.00 in    
Sea Level Pressure  
Sea Level Pressure 29.53 in    
Wind  
Wind Speed 12 mph (NW)    
Max Wind Speed 30 mph    
Max Gust Speed 40 mph    
Visibility 10 miles    
Events Rain    
T = Trace of Precipitation, MM = Missing Value Source: NWS Daily Summary

Daily Weather History Graph

Daily Weather History Graph

Search for Another Location

Airport or City:

Trip Planner

Search our weather history database for the weather conditions in past years. The results will help you decide how hot, cold, wet, or windy it might be!

Date:

Astronomy

Jan. 01, 2006 Rise Set
Actual Time 7:22 AM MST 4:34 PM MST
Civil Twilight 6:50 AM MST 5:05 PM MST
Nautical Twilight 6:15 AM MST 5:40 PM MST
Astronomical Twilight 5:41 AM MST 6:14 PM MST
Moon 9:08 AM MST 6:27 PM MST
Length of Visible Light 10h 15m
Length of Day
9h 12m
Waxing Crescent, 4% of the Moon is Illuminated
Jan 1
Waxing Crescent
Jan 6
First Quarter
Jan 14
Full
Jan 22
Last Quarter
Jan 29
New

Hourly Weather History & Observations

Time (MST) Temp. Windchill Dew Point Humidity Pressure Visibility Wind Dir Wind Speed Gust Speed Precip Events Conditions
12:54 AM 37.9 °F 33.5 °F 28.9 °F 70% 29.34 in 10.0 mi NW 5.8 mph - N/A   Overcast
1:54 AM 37.0 °F 32.4 °F 28.9 °F 73% 29.35 in 10.0 mi WNW 5.8 mph - N/A   Mostly Cloudy
2:54 AM 39.0 °F - 28.9 °F 67% 29.35 in 10.0 mi Calm Calm - N/A   Mostly Cloudy
3:54 AM 37.0 °F - 28.0 °F 70% 29.34 in 10.0 mi Calm Calm - N/A   Overcast
4:54 AM 39.0 °F 33.4 °F 30.0 °F 70% 29.37 in 10.0 mi NW 8.1 mph - N/A   Overcast
5:54 AM 39.0 °F 33.4 °F 30.0 °F 70% 29.40 in 10.0 mi WNW 8.1 mph - N/A   Overcast
6:54 AM 39.0 °F 36.8 °F 32.0 °F 76% 29.39 in 10.0 mi North 3.5 mph - 0.00 in   Overcast
7:54 AM 39.9 °F - 33.1 °F 77% 29.39 in 10.0 mi Calm Calm - N/A   Overcast
8:54 AM 44.1 °F 40.1 °F 35.1 °F 71% 29.42 in 10.0 mi NW 6.9 mph - N/A   Mostly Cloudy
9:54 AM 46.9 °F - 36.0 °F 66% 29.44 in 10.0 mi WNW 15.0 mph - 0.00 in Rain Light Rain
10:54 AM 46.0 °F 39.0 °F 39.0 °F 76% 29.45 in 10.0 mi WNW 17.3 mph 21.9 mph 0.00 in Rain Light Rain
11:54 AM 44.1 °F 38.1 °F 41.0 °F 89% 29.48 in 10.0 mi WNW 11.5 mph - 0.00 in Rain Light Rain
12:50 PM 44.6 °F 37.4 °F 41.0 °F 87% 29.49 in 10.0 mi NW 16.1 mph - 0.01 in Rain Light Rain
12:54 PM 45.0 °F 37.4 °F 39.9 °F 82% 29.49 in 10.0 mi NW 18.4 mph 24.2 mph 0.01 in Rain Light Rain
1:13 PM 44.6 °F 37.4 °F 41.0 °F 87% 29.50 in 10.0 mi NW 16.1 mph 24.2 mph 0.00 in Rain Light Rain
1:39 PM 46.4 °F 39.2 °F 39.2 °F 76% 29.51 in 10.0 mi NW 18.4 mph 25.3 mph 0.00 in   Overcast
1:54 PM 46.9 °F - 39.0 °F 74% 29.52 in 10.0 mi NW 19.6 mph 31.1 mph 0.00 in   Overcast
2:16 PM 46.4 °F 37.9 °F 37.4 °F 71% 29.53 in 10.0 mi NW 25.3 mph 32.2 mph N/A   Overcast
2:46 PM 46.4 °F 37.9 °F 37.4 °F 71% 29.56 in 10.0 mi NW 25.3 mph 36.8 mph N/A   Overcast
2:54 PM 46.9 °F - 37.0 °F 68% 29.56 in 10.0 mi NNW 26.5 mph 40.3 mph N/A   Overcast
3:04 PM 46.4 °F 38.5 °F 37.4 °F 71% 29.57 in 10.0 mi NW 21.9 mph 34.5 mph N/A   Mostly Cloudy
3:54 PM 46.0 °F 37.4 °F 35.1 °F 66% 29.60 in 10.0 mi NW 25.3 mph 39.1 mph N/A   Mostly Cloudy
4:54 PM 43.0 °F 34.5 °F 34.0 °F 71% 29.64 in 10.0 mi NNW 19.6 mph 31.1 mph N/A   Clear
5:54 PM 41.0 °F 33.1 °F 34.0 °F 76% 29.67 in 10.0 mi WNW 15.0 mph 19.6 mph N/A   Mostly Cloudy
6:54 PM 39.9 °F 31.1 °F 33.1 °F 77% 29.71 in 10.0 mi WNW 17.3 mph - N/A   Partly Cloudy
7:54 PM 43.0 °F 35.4 °F 34.0 °F 71% 29.74 in 10.0 mi WNW 16.1 mph - N/A   Overcast
8:54 PM 41.0 °F 34.3 °F 27.0 °F 57% 29.75 in 10.0 mi WNW 11.5 mph 20.7 mph N/A   Overcast
9:54 PM 41.0 °F 33.9 °F 26.1 °F 55% 29.77 in 10.0 mi WNW 12.7 mph - N/A   Overcast
10:54 PM 39.0 °F 31.0 °F 23.0 °F 53% 29.79 in 10.0 mi WNW 13.8 mph - N/A   Scattered Clouds
11:54 PM 36.0 °F 27.1 °F 21.0 °F 55% 29.82 in 10.0 mi WNW 13.8 mph - N/A   Clear